User: anonymous   Login
Location: Kawakawa
(35.3830°S, 174.0670°E)
Time: 14:48:59
(UTC+13:00)
Language:

Meteor 1-27 - Orbit

View from above orbital plane
View from above orbital plane
View from above satellite
View from above satellite

Ground track
Ground track

The orbit data is extracted from the following two-line orbital elements,

1  9903U 77024A   19318.58728207 +.00000190 +00000-0 +10354-3 0  9998
2  9903 081.2527 308.5358 0037688 324.2793 035.5856 14.08274648188791
Epoch (UTC): 14 November 2019 14:05:41
Eccentricity: 0.0037688
inclination: 81.2527°
perigee height: 838 km
apogee height: 892 km
right ascension of ascending node: 308.5358°
argument of perigee: 324.2793°
revolutions per day: 14.08274648
mean anomaly at epoch: 35.5856°
orbit number at epoch: 18879

The dashed part of the orbit path shows where the satellite is in the earth's shadow,  

DLR